Theta_e
309 310 312 312 309 309 310 311 311 310 310 310 308 310 308 307 306 304 303 303 307 312 308 315 324 327 329 331 333 334 334 334 334 332 330 330 329 329 330 329 328 328 328 329
309 311 310 310 310 311 310 311 310 310 310 310 309 309 309 307 307 306 303 303 306 305 305 306 309 316 327 330 331 332 333 334 334 333 331 330 328 329 329 328 328 328 328 328
312 311 310 311 310 310 309 309 308 311 310 309 309 309 310 309 308 308 306 305 304 303 305 307 309 310 312 317 324 330 332 333 333 333 332 329 328 328 328 329 328 328 328 327
312 311 310 311 311 309 309 307 308 309 307 309 307 309 303 307 307 308 306 304 304 304 306 308 310 311 311 309 311 315 330 333 333 333 331 329 327 328 328 328 327 327 326 325
314 311 311 311 311 309 310 309 309 308 307 308 308 305 303 305 307 308 305 305 306 305 307 307 310 312 313 313 310 309 318 331 333 332 330 329 327 326 326 325 325 324 324 324
314 308 310 312 309 308 309 310 308 309 308 308 307 306 304 305 307 309 306 305 304 306 305 307 310 311 313 312 308 313 321 327 332 332 328 329 326 324 323 321 320 318 315 315
309 309 308 309 311 309 310 309 310 312 312 309 305 304 306 304 305 306 307 306 305 305 305 305 306 307 311 312 314 317 321 327 331 330 328 326 323 321 319 317 317 313 312 307
311 312 308 308 310 310 308 309 309 309 311 307 304 308 308 305 306 305 306 306 305 304 305 304 305 306 308 310 312 316 321 321 323 324 323 322 320 318 315 314 308 304 302 300
311 310 308 308 309 309 309 308 306 307 298 308 304 303 305 309 310 307 306 306 306 304 304 303 304 305 306 308 309 312 314 315 318 319 318 316 313 310 305 302 300 298 297 296
308 310 309 308 308 308 309 307 310 306 310 309 305 305 305 308 310 308 307 307 305 304 303 302 302 303 304 305 305 307 308 309 309 310 308 306 304 302 299 297 296 295 294 294
309 310 310 309 310 310 308 307 306 307 308 310 306 305 301 306 309 309 308 307 306 305 304 302 301 302 303 303 303 303 304 303 303 303 301 299 297 296 295 294 293 293 292 292
309 310 311 310 308 308 307 307 307 309 307 306 307 305 306 303 304 308 307 307 305 305 303 301 301 301 301 301 301 301 301 301 300 298 297 295 294 294 293 292 292 291 291 290
310 310 311 311 309 309 308 307 307 306 306 308 310 307 305 305 305 307 308 307 306 304 302 301 300 299 299 300 300 299 299 298 297 296 294 293 292 292 292 291 290 290 290 290
310 310 311 311 309 309 310 308 306 308 308 306 306 306 306 306 307 307 308 307 305 304 303 301 299 298 298 298 298 297 296 296 295 294 293 292 292 291 290 290 289 290 289 288
309 310 309 309 308 308 308 309 308 308 308 308 308 304 304 304 306 308 308 307 306 305 304 302 301 299 297 296 296 296 295 294 293 292 292 291 290 289 289 289 288 288 288 288
308 306 308 310 311 309 309 308 308 308 307 305 305 304 303 303 305 306 307 308 307 306 305 303 302 299 297 296 295 295 294 293 292 292 291 290 289 289 288 287 287 287 287 287
310 308 306 304 308 309 311 309 308 308 308 308 307 308 303 304 305 307 307 308 308 307 306 304 303 300 297 295 294 294 294 292 291 291 290 289 288 288 287 287 286 287 287 287
313 312 310 310 308 312 309 306 306 307 306 307 306 306 304 305 304 306 307 308 308 307 306 304 303 301 298 295 294 294 293 292 291 290 289 288 288 287 286 286 287 287 287 287
308 313 313 318 316 314 314 308 307 307 307 305 306 306 303 305 306 305 306 307 308 307 306 305 304 301 297 294 293 293 292 291 290 288 288 287 287 286 286 286 287 286 286 286
307 309 313 305 315 314 309 310 304 306 312 309 307 307 303 304 307 307 304 306 307 307 307 305 303 299 295 293 293 293 291 290 289 288 287 287 286 286 286 286 286 286 286 284
310 307 313 305 304 305 304 304 305 311 310 303 305 306 302 306 307 306 303 303 305 305 304 303 299 295 294 293 292 290 289 289 289 288 286 285 285 285 285 285 285 285 283 283
311 311 308 302 305 310 302 304 309 306 302 305 306 305 303 303 305 304 302 301 299 298 297 298 295 295 293 293 291 289 288 289 288 286 285 284 284 284 284 284 284 283 283 282
312 310 309 309 308 303 301 301 299 299 299 299 304 303 303 302 302 300 299 296 295 296 296 295 295 292 291 291 291 288 289 288 286 285 283 283 283 282 282 283 283 283 282 283
302 301 306 308 304 303 300 298 297 298 298 298 299 300 301 302 299 297 294 292 292 292 292 293 291 289 288 289 290 290 289 287 285 283 282 282 281 282 282 282 282 282 282 281
302 303 300 302 304 300 298 298 298 298 298 298 298 298 299 299 297 295 292 290 290 290 290 289 289 289 287 287 289 289 288 286 283 282 281 281 281 281 281 281 281 280 281 280
301 304 308 305 304 304 303 300 297 297 298 297 297 297 296 296 295 292 289 290 289 288 288 288 289 288 285 287 287 287 286 284 283 281 280 280 280 280 280 279 280 280 280 279
Wind_Speed
7 7 21 19 3 6 8 6 7 3 3 4 8 4 9 7 5 8 8 9 8 9 5 10 18 24 24 31 33 35 34 32 30 28 24 20 20 19 17 15 13 12 12 12
5 18 8 8 9 4 6 9 5 0 1 3 4 8 3 5 6 8 10 9 10 6 5 9 10 14 21 26 29 31 33 33 33 31 26 20 18 17 15 13 13 12 13 12
5 3 7 8 6 9 4 7 5 5 3 3 4 6 4 5 3 3 5 5 5 10 9 5 8 9 13 15 18 24 30 33 35 31 23 16 15 14 13 13 12 10 8 8
7 3 10 7 13 9 6 7 7 7 6 5 4 5 6 7 8 6 7 8 9 9 5 4 6 6 8 12 14 15 22 30 34 30 25 19 17 13 12 9 7 7 6 6
11 10 9 12 13 9 6 7 9 7 5 5 2 1 6 2 6 8 11 9 7 7 8 8 8 6 5 8 11 13 18 25 32 30 22 21 18 13 12 11 11 9 8 5
9 4 8 9 1 8 8 7 6 5 3 2 6 7 5 6 10 14 4 10 9 8 7 9 9 8 6 8 11 16 19 23 28 29 23 20 18 14 16 15 13 11 7 4
7 5 3 11 4 0 6 9 2 0 2 6 3 4 8 6 7 9 18 11 10 8 7 7 10 11 11 13 16 20 21 23 28 26 25 22 18 17 16 16 13 12 10 10
7 7 8 6 9 8 8 12 6 7 5 3 2 6 6 5 4 6 8 11 11 9 7 7 12 14 15 16 19 23 26 26 27 30 27 22 23 21 18 17 17 17 16 14
13 6 1 2 2 6 6 7 6 7 3 3 4 6 8 0 1 4 9 13 12 9 8 8 13 15 16 19 22 25 28 29 30 30 29 26 24 25 25 22 20 19 16 13
6 4 1 1 1 0 5 8 3 2 6 4 4 4 5 6 10 8 11 15 11 9 9 7 13 18 18 20 21 25 29 31 31 32 32 30 28 26 25 22 19 16 14 11
4 4 2 3 4 8 2 3 3 5 5 6 2 6 8 16 16 17 14 13 13 12 12 10 16 21 21 22 24 27 30 32 33 33 33 32 28 25 22 20 16 13 11 9
2 5 3 5 1 1 2 7 7 5 6 1 3 6 2 6 7 9 10 12 11 12 11 10 17 23 25 25 26 28 30 32 32 32 31 30 27 23 20 17 14 11 9 8
7 2 4 3 3 1 5 5 5 5 3 8 6 6 1 2 6 10 14 13 13 12 11 10 14 18 23 27 28 28 30 31 31 31 29 26 23 20 17 15 12 10 8 7
9 4 6 9 8 7 5 6 6 8 4 4 7 5 5 5 8 9 12 14 14 14 15 12 12 17 23 27 30 30 31 31 31 29 27 24 21 18 16 13 11 9 7 6
5 6 5 2 4 11 6 9 15 14 21 13 21 11 9 8 12 16 12 12 15 16 15 16 15 19 22 26 30 32 32 31 31 29 25 22 19 16 14 11 10 8 6 6
2 1 3 1 6 0 4 10 12 15 12 9 2 6 8 4 8 9 14 16 17 18 19 18 17 23 25 29 31 34 35 33 30 28 25 21 18 15 13 10 8 6 5 5
7 5 3 4 2 3 3 12 15 16 17 18 15 22 7 5 10 14 15 18 21 21 21 22 22 28 30 32 35 36 39 34 30 28 24 21 18 15 12 9 6 4 5 6
14 10 2 2 3 4 6 6 10 15 9 18 8 4 10 9 10 10 12 19 22 20 20 19 28 30 32 34 35 37 38 35 31 27 24 21 18 15 11 8 6 5 5 6
2 16 3 5 6 8 9 7 7 7 10 7 12 16 7 5 4 6 13 17 21 22 23 33 36 34 34 36 40 43 40 35 31 28 24 21 17 14 11 8 6 5 5 4
4 4 8 3 5 12 2 18 6 8 16 17 14 12 8 7 6 15 14 18 19 23 24 27 32 32 35 38 46 44 40 37 34 30 25 20 17 14 12 9 7 4 4 3
4 2 13 4 5 9 7 3 9 9 12 4 9 13 10 10 17 12 7 10 17 20 26 31 36 36 37 43 47 37 38 38 35 29 24 20 16 13 11 9 6 4 4 2
8 7 4 3 1 15 4 4 16 5 3 2 1 3 7 12 0 1 3 6 11 14 26 36 32 32 37 47 47 37 37 37 32 28 24 20 16 13 10 8 6 4 3 2
5 6 6 10 8 3 1 3 2 1 2 2 2 3 3 5 4 4 4 6 7 16 22 28 30 28 32 42 43 36 37 36 33 28 23 19 15 13 10 8 7 5 2 1
3 2 4 4 2 3 3 0 1 2 3 3 3 4 1 1 2 3 4 5 6 14 18 25 28 27 28 37 40 43 41 37 32 28 23 19 16 13 10 8 6 5 3 0
2 4 5 4 0 1 2 2 3 2 0 1 2 2 5 1 2 2 3 2 5 12 18 25 25 26 28 36 41 37 38 35 31 26 22 20 17 12 10 8 7 5 3 2
4 4 3 1 0 2 2 1 0 5 3 0 2 4 3 0 2 3 2 7 11 14 19 20 22 24 30 38 37 33 34 32 29 26 22 20 16 14 12 10 8 5 4 4
Wind_Direction
179 175 205 206 144 155 142 138 171 218 203 146 205 218 206 194 187 207 218 214 211 204 185 174 193 198 196 199 203 204 203 203 200 195 193 200 216 221 224 229 232 237 247 249
164 215 182 154 181 189 142 162 186 72 65 159 164 232 234 202 224 198 195 210 199 169 180 160 157 166 183 192 199 203 204 205 201 200 202 202 215 219 227 229 237 244 252 259
183 260 172 163 176 194 200 169 174 162 140 60 110 304 212 234 216 181 200 191 171 180 181 170 157 165 173 181 193 205 206 205 202 203 200 197 208 220 224 232 243 250 253 256
263 192 184 189 198 188 203 195 168 148 132 189 158 255 246 216 200 201 202 182 177 176 161 157 166 165 175 199 203 200 203 205 200 199 197 199 205 202 215 213 201 200 208 227
205 226 198 198 203 167 197 143 162 160 148 124 205 148 261 136 213 221 211 205 185 186 163 164 166 172 190 209 217 205 197 199 201 200 207 192 189 194 174 162 156 147 143 146
250 294 188 193 282 187 142 99 51 67 101 242 197 171 253 188 205 208 177 202 180 172 166 159 153 159 164 180 189 183 179 187 194 198 202 187 174 175 163 156 153 151 136 122
170 208 212 157 203 237 164 146 131 143 185 216 158 159 239 229 234 207 202 188 166 168 169 161 150 148 147 154 162 165 171 164 181 182 176 174 179 171 172 150 157 141 134 116
160 200 186 175 193 182 191 175 155 175 188 205 122 227 243 223 279 237 188 163 156 158 171 165 157 155 150 148 156 154 151 146 155 160 156 168 160 155 147 142 139 127 120 107
178 181 209 184 156 174 190 187 154 98 20 75 212 281 301 207 109 149 149 157 172 162 163 163 156 161 156 153 151 151 149 145 146 143 145 149 149 142 136 133 131 124 115 108
181 132 52 123 203 33 188 156 106 16 137 220 260 263 232 232 223 183 177 180 171 157 156 154 157 164 159 155 150 148 147 144 143 143 142 140 138 138 135 132 126 121 114 109
127 113 155 110 208 170 146 202 77 121 149 177 180 253 214 205 207 192 188 173 165 165 166 165 161 164 158 152 150 145 143 140 140 139 137 136 134 134 133 128 121 114 111 100
113 102 144 194 262 318 277 208 175 177 219 285 160 263 177 226 206 168 171 168 167 167 166 162 160 160 160 155 151 148 145 144 142 140 139 136 136 136 133 126 120 114 106 96
175 130 96 51 8 262 225 207 174 107 77 198 177 252 21 317 166 175 170 172 167 161 160 162 157 163 161 161 159 156 153 148 147 146 143 140 137 137 132 128 123 115 106 89
122 144 170 190 209 134 210 210 189 186 178 184 223 221 245 215 185 176 180 175 168 169 172 170 168 167 169 170 167 163 158 156 154 151 148 144 143 141 135 131 125 116 101 78
151 190 182 255 208 190 203 204 196 199 217 198 236 202 225 213 195 193 180 165 172 178 180 180 178 175 174 173 171 168 165 163 161 155 153 150 148 145 141 134 122 112 89 53
62 201 136 350 339 232 186 197 188 212 226 250 177 247 212 213 124 165 186 180 185 191 188 184 182 180 178 177 175 173 171 169 167 160 157 156 154 150 144 135 124 111 77 35
125 128 95 250 285 78 314 207 196 219 218 218 223 237 157 187 193 191 186 189 196 195 190 188 188 186 183 180 176 175 175 172 171 166 163 164 161 157 150 139 130 98 56 38
182 207 106 149 5 184 259 201 189 205 217 221 236 227 182 200 208 205 197 196 204 200 194 191 190 188 184 179 178 177 176 174 173 170 168 169 167 162 155 149 131 99 68 45
338 188 183 213 212 306 280 240 158 165 256 206 214 237 191 188 114 255 203 208 208 199 196 195 191 183 176 175 176 179 177 176 175 174 174 174 171 166 157 148 133 111 83 56
65 151 179 143 178 223 292 220 177 93 268 233 226 233 176 144 209 243 194 206 210 206 195 186 181 175 172 173 179 177 177 179 181 180 179 176 175 173 165 155 144 116 85 53
104 61 198 161 230 276 226 127 131 152 262 217 191 210 172 193 219 249 184 203 204 186 175 173 168 173 174 173 176 172 177 183 184 182 180 178 178 175 170 160 151 131 118 92
156 151 188 99 142 259 143 52 166 228 26 17 73 174 197 227 217 171 238 183 161 156 156 165 165 173 174 177 175 173 180 185 182 181 180 181 180 179 173 168 157 156 146 108
176 187 174 185 213 219 192 14 46 75 108 45 342 339 296 213 204 183 195 164 166 163 164 168 168 163 169 176 177 172 181 181 180 180 181 180 179 179 180 178 172 172 188 7
249 208 179 106 204 181 179 29 30 35 78 23 10 320 263 280 223 215 172 160 148 153 159 163 158 161 165 176 180 183 180 181 180 180 180 181 183 182 188 192 188 184 194 227
210 136 167 280 218 59 56 213 230 172 45 357 4 10 307 183 222 219 198 156 149 154 160 165 167 168 170 175 182 184 181 181 180 181 182 183 186 186 190 192 196 195 228 267
196 171 184 170 235 134 177 177 136 181 217 6 25 352 339 134 179 157 181 180 161 158 164 166 171 169 172 177 178 180 183 184 182 181 186 188 185 188 193 196 200 187 203 220